South Bend, IN

8:39 AM EDT on August 17, 2017 (GMT -0400)
South Bend Regional

Weather History for KSBN - June, 2013

Change the Weather History Date:

Tuesday, June 18, 2013

  Actual Average Record
Temperature  
Mean Temperature 69 °F 70 °F  
Max Temperature 77 °F 80 °F 98 °F (1994)
Min Temperature 61 °F 60 °F 41 °F (1909)
Degree Days  
Heating Degree Days 0 1  
Month to date heating degree days 37 35  
Since 1 June heating degree days 37 35  
Since 1 July heating degree days 6140 6289  
Cooling Degree Days 4 6  
Month to date cooling degree days 62 78  
Year to date cooling degree days 158 134  
Since 1 June cooling degree days 62 78  
Growing Degree Days 19 (Base 50)    
Moisture  
Dew Point 57 °F    
Average Humidity 70    
Maximum Humidity 90    
Minimum Humidity 50    
Precipitation  
Precipitation 0.04 in 0.13 in 1.57 in (1996)
Month to date precipitation 1.31 2.35  
Year to date precipitation 18.61 16.07  
Snow  
Snow 0.00 in - - ()
Month to date snowfall 0.0  
Since 1 June snowfall 0.0  
Snow Depth 0.00 in    
Sea Level Pressure  
Sea Level Pressure 29.97 in    
Wind  
Wind Speed 7 mph (NE)    
Max Wind Speed 16 mph    
Max Gust Speed 22 mph    
Visibility 10 miles    
Events Rain    
T = Trace of Precipitation, MM = Missing Value Source: NWS Daily Summary

Daily Weather History Graph

Daily Weather History Graph

Search for Another Location

Airport or City:

Trip Planner

Search our weather history database for the weather conditions in past years. The results will help you decide how hot, cold, wet, or windy it might be!

Date:

Astronomy

Jun. 18, 2013 Rise Set
Actual Time 6:10 AM EDT 9:22 PM EDT
Civil Twilight 5:36 AM EDT 9:56 PM EDT
Nautical Twilight 4:52 AM EDT 10:40 PM EDT
Astronomical Twilight 3:59 AM EDT 11:33 PM EDT
Moon 4:03 PM EDT (6/18) 2:22 AM EDT (6/18)
Length of Visible Light 16h 20m
Length of Day
15h 12m
Waxing Gibbous, 70% of the Moon is Illuminated
Jun 18
Waxing Gibbous
Jun 23
Full
Jun 30
Last Quarter
Jul 8
New
Jul 15
First Quarter

Hourly Weather History & Observations

Time (EDT) Temp. Dew Point Humidity Pressure Visibility Wind Dir Wind Speed Gust Speed Precip Events Conditions
12:54 AM 66.9 °F 59.0 °F 76% 29.90 in 10.0 mi NE 3.5 mph - N/A   Scattered Clouds
1:54 AM 66.0 °F 60.1 °F 81% 29.89 in 10.0 mi Calm Calm - N/A   Mostly Cloudy
2:54 AM 62.1 °F 59.0 °F 90% 29.89 in 10.0 mi North 6.9 mph - N/A   Partly Cloudy
3:54 AM 62.1 °F 57.9 °F 86% 29.89 in 10.0 mi NNW 6.9 mph - N/A   Clear
4:54 AM 63.0 °F 59.0 °F 87% 29.90 in 10.0 mi ENE 3.5 mph - 0.04 in Rain Light Rain
5:54 AM 62.1 °F 59.0 °F 90% 29.91 in 9.0 mi North 5.8 mph - 0.00 in   Scattered Clouds
6:54 AM 61.0 °F 57.9 °F 90% 29.93 in 9.0 mi North 4.6 mph - N/A   Clear
7:54 AM 63.0 °F 59.0 °F 87% 29.96 in 10.0 mi NNE 10.4 mph - N/A   Scattered Clouds
8:03 AM 62.6 °F 59.0 °F 88% 29.97 in 9.0 mi NE 10.4 mph - N/A   Mostly Cloudy
8:54 AM 62.1 °F 59.0 °F 90% 29.99 in 8.0 mi NE 6.9 mph - N/A   Overcast
9:54 AM 64.0 °F 59.0 °F 84% 30.00 in 10.0 mi NE 6.9 mph - N/A   Overcast
10:54 AM 64.0 °F 57.9 °F 80% 30.00 in 10.0 mi East 6.9 mph - N/A   Overcast
11:54 AM 66.0 °F 59.0 °F 78% 30.00 in 10.0 mi ENE 6.9 mph - N/A   Overcast
12:33 PM 69.8 °F 59.0 °F 68% 30.00 in 10.0 mi ENE 8.1 mph - N/A   Scattered Clouds
12:54 PM 70.0 °F 59.0 °F 68% 29.99 in 10.0 mi NNE 6.9 mph - N/A   Scattered Clouds
1:46 PM 71.6 °F 59.0 °F 64% 30.00 in 10.0 mi North 5.8 mph - N/A   Mostly Cloudy
1:54 PM 73.0 °F 60.1 °F 64% 29.99 in 10.0 mi NNE 8.1 mph - N/A   Mostly Cloudy
2:06 PM 73.4 °F 60.8 °F 65% 30.00 in 10.0 mi ENE 6.9 mph - N/A   Mostly Cloudy
2:54 PM 75.0 °F 57.9 °F 55% 30.00 in 10.0 mi Variable 3.5 mph - N/A   Scattered Clouds
3:54 PM 75.9 °F 57.9 °F 54% 29.99 in 10.0 mi North 11.5 mph - N/A   Partly Cloudy
4:54 PM 75.9 °F 55.9 °F 50% 29.98 in 10.0 mi NNE 12.7 mph 17.3 mph N/A   Scattered Clouds
5:54 PM 73.0 °F 55.0 °F 53% 29.99 in 10.0 mi NE 8.1 mph - N/A   Overcast
6:54 PM 73.9 °F 55.0 °F 52% 29.99 in 10.0 mi NNE 10.4 mph - N/A   Partly Cloudy
7:54 PM 72.0 °F 54.0 °F 53% 30.00 in 10.0 mi NE 8.1 mph - N/A   Clear
8:54 PM 70.0 °F 53.1 °F 55% 30.01 in 10.0 mi NE 8.1 mph - N/A   Clear
9:54 PM 66.9 °F 51.1 °F 57% 30.04 in 10.0 mi NNE 8.1 mph - N/A   Clear
10:54 PM 64.0 °F 50.0 °F 60% 30.06 in 10.0 mi NE 6.9 mph - N/A   Clear
11:54 PM 63.0 °F 48.0 °F 58% 30.06 in 10.0 mi ENE 5.8 mph - N/A   Clear